Вернуться в каталог

GAOFEN 13 DEB

АктивенMEO
NORAD 62337·DEBRIS·🇨🇳 China

Запущен Oct 11, 2020 с Xichang Satellite Launch Center

Loading…

Ближайшие Пролёты (ближайшие 24 часа)

TLE

СвежийSource: Space-Track

Эпоха: Sep 13, 2026, 22:49 UTC

1 62337U 20071C   26256.95125662 -.00000422  00000-0  00000-0 0  9997
2 62337   3.1373  79.4147 0643357  54.2478 312.0165  1.00215323  7114

Отслеживайте GAOFEN 13 DEB в реальном времени с AllMySat

Download on the App Store